Pagrindinis puslapis
METAR-TAF:

METAR-TAF

Oro uostai :

La Argelia

Locha, Ekvadoras

platuma: 03-59-45S, ilguma: 079-22-19W, Aukštis: 1236 m

Dabartinis oras

Ataskaita buvo paskelbta 55 minutes, ne 23:00 UTC
Vėjas 3 kt iš Pietų
Temperatūra 22°C
Drėgmė 73%
Slėgis 1016 hPa
Matomumas 10 km arba daugiau
Su prošvaistėmis ne aukštis 4000 ft
Su prošvaistėmis ne aukštis 10000 ft

METAR: SECA 222300Z 19003KT 9999 BKN040 BKN100 22/17 Q1016

Laikas: 18:55 (23:55 UTC)


TAF: trūkstamas

Orai ataskaitas ir orų prognozės (METAR, TAF).

turimą stotys yra geltonos ir raudonos taškus žemėlapyje.

Perkelti pele per norėdami pamatyti stoties vardą.

Tada spustelėkite, norėdami matyti oro stebėjimo ir prognozės.

Norėdami pakeisti žemėlapį: spustelėkite ant žalios mygtukų su juodo kryžiaus žemyn,; žalią mygtuką su brūkšneliu, jei norite nutolinti; arba žalių rodyklių gretimoms žemėlapius.


METAR-TAF: